Regional Weather Roundup
Issued by NWS Glasgow, MT

Home | Current Version | Previous Version | Text Only | Print | Product List | Glossary On
Versions: 1 2 3 4 5 6 7 8 9 10 11 12 13 14 15 16 17 18 19 20 21 22 23 24 25 26 27
000
ASUS45 KGGW 291815
RWRGGW
HOURLY REGIONAL WEATHER ROUNDUP FOR NORTHEAST MONTANA
NATIONAL WEATHER SERVICE GLASGOW MONTANA
1200 PM MDT FRI APR 29 2016

NOTE: "FAIR" INDICATES FEW OR NO CLOUDS BELOW 12,000 FEET WITH NO
SIGNIFICANT WEATHER AND/OR OBSTRUCTIONS TO VISISBILITY.

NORTHEAST MONTANA


CITY           SKY/WX    TMP DP  RH WIND       PRES   REMARKS
GLASGOW        CLOUDY    50  36  58 E14       30.10F
6HR MIN TEMP:  38; 6HR MAX TEMP:  50;

PLENTYWOOD       N/A     55  23  28 SE10G26     N/A
WOLF POINT     MOSUNNY   57  27  31 E13G20    30.11F
JORDAN           N/A     49  37  63 SE18      30.07F
SIDNEY         PTSUNNY   54  30  40 SE12G21   30.15F
GLENDIVE       CLOUDY    50  34  53 E13       30.13S
MALTA            N/A     50  35  56 SE10        N/A
SCOBEY           N/A     55  23  29 SE16G28   30.11F
OPHEIM           N/A     48  19  32 CALM      30.01F

FORT PECK REPORTS


CITY           SKY/WX    TMP DP  RH WIND       PRES   REMARKS
FORT PECK        N/A     50  38  63 E12         N/A
THE PINES        N/A     52  34  50 SE5G14      N/A

SOUTHEAST MONTANA


CITY           SKY/WX    TMP DP  RH WIND       PRES   REMARKS
BILLINGS       CLOUDY    44  37  76 E7        30.00F
MILES CITY     CLOUDY    50  36  58 E13       30.07F
BAKER          CLOUDY    49  35  58 SE15      30.10S
LIVINGSTON     CLOUDY    43  29  57 E9        29.95F

CENTRAL MONTANA


CITY           SKY/WX    TMP DP  RH WIND       PRES   REMARKS
HAVRE          CLOUDY    51  35  54 SE18      30.02F
LEWISTOWN      CLOUDY    45  33  63 SE17G24   29.99R
GREAT FALLS    CLOUDY    47  31  53 VRB5      29.96F
CUT BANK       CLOUDY    40  34  79 S9        29.97S
HELENA         CLOUDY    48  27  44 SE9       29.93F
BUTTE          PTSUNNY   42  26  53 E8        29.90F
BOZEMAN        SUNNY     46  31  55 NW3       29.92F

WESTERN MONTANA


CITY           SKY/WX    TMP DP  RH WIND       PRES   REMARKS
MISSOULA       CLOUDY    48  33  56 CALM      29.93F
KALISPELL      NOT AVBL

NORTH DAKOTA


CITY           SKY/WX    TMP DP  RH WIND       PRES   REMARKS
WILLISTON      SUNNY     56  26  31 SE15G22   30.16F
DICKINSON      CLOUDY    51  27  39 E12       30.10F
MINOT          SUNNY     61  24  24 E12       30.18F
BISMARCK       SUNNY     57  31  37 NE14      30.13F

SOUTHERN SASKATCHEWAN


CITY           SKY/WX    TMP DP  RH WIND       PRES   REMARKS
REGINA         MOSUNNY   59  10  14 SE18G26   30.18F
MOOSE JAW      MOSUNNY   57  18  21 E13G20    30.16F
ESTEVAN        PTSUNNY   59  18  20 SE13G23   30.18F
SWIFT CURRENT  CLOUDY    55  23  28 SE17G28   30.08S





USA.gov is the U.S. government's official web portal to all federal, state and local government web resources and services.